Location: Jackson
(40.9603°N, 81.8993°W)
Time: 00:47:57
(UTC+00:00)

Daily predictions for brighter satellites

Satellite Brightness Start Highest point End
(mag) Time Altitude Azimuth Time Altitude Azimuth Time Altitude Azimuth
Cosmos 1515 Rocket 3.8 01:25:04 10° SSE 01:29:12 47° E 01:33:22 10° NNE
Cosmos 1707 3.5 01:27:33 10° SSE 01:30:42 29° E 01:33:52 10° NNE
Cosmos 1633 Rocket 3.1 01:28:02 10° N 01:32:26 84° W 01:36:47 10° S
PSLV R/B 3.5 01:30:01 10° SSE 01:33:33 77° ENE 01:37:04 10° N
SL-24 R/B 4.3 01:28:53 10° SSE 01:33:46 67° ENE 01:38:02 10° N
Cosmos 676 Rocket 4.5 01:29:18 10° S 01:34:16 41° ESE 01:39:14 10° NNE
CARTOSAT-1 3.8 01:32:05 10° S 01:36:19 73° WSW 01:40:36 10° NNW
CZ-4C R/B 4.1 01:33:20 10° NNE 01:37:11 36° E 01:40:59 10° SSE
DELTA 2 DEB (DPAF) 4.1 01:33:08 10° NNE 01:37:22 87° WNW 01:41:34 10° SSW
Cosmos 1190 Rocket 4.0 01:32:19 10° SSW 01:37:35 76° ESE 01:42:54 10° NNE
Cosmos 1697 Rocket 4.1 01:34:12 10° NW 01:39:17 36° WSW 01:44:21 10° S
SPOT 5 3.5 01:35:46 10° SE 01:39:39 34° ENE 01:43:36 10° N
Cosmos 1553 Rocket 4.3 01:35:20 10° N 01:41:21 51° ENE 01:47:25 10° SSE
CSL-04 Rocket 4.0 01:40:20 10° S 01:45:34 67° WSW 01:50:54 10° NNW
Cosmos 1470 Rocket 3.5 01:42:26 10° N 01:46:49 85° E 01:51:07 10° S
Okean O Rocket 1.9 01:42:32 10° S 01:46:55 69° WSW 01:51:17 10° NNW
Tiangong -2.0 01:44:27 10° W 01:47:35 64° SSW 01:50:36 11° ESE
SL-4 R/B 4.4 01:46:30 10° WNW 01:49:29 22° NNW 01:52:36 10° NE
Cosmos 1766 3.6 01:50:39 10° NNW 01:54:22 61° W 01:58:03 10° S
ERS-1 Rocket 3.8 01:50:48 10° SE 01:55:14 34° ENE 01:59:46 10° N
COSMOS 2406 3.7 01:50:47 10° SSW 01:56:30 66° WNW 02:02:13 10° NNE
Cosmos 1400 Rocket 4.0 01:53:37 11° SE 01:56:37 24° E 01:59:46 10° NE
Cosmos 1980 Rocket 2.8 01:51:45 10° NNW 01:57:19 57° WSW 02:02:48 10° S
Cosmos 1674 2.9 01:54:53 10° SSW 01:58:18 64° W 02:01:45 10° N
Cosmos 2322 Rocket 3.7 01:53:59 10° N 01:58:31 24° NE 02:03:02 10° ESE
Cosmos 1763 Rocket 3.5 01:54:34 10° NNW 01:59:50 86° WSW 02:04:59 10° SSE
IRIDIUM 104 4.5 01:58:13 10° N 02:03:27 79° W 02:08:39 10° S
ATLAS CENTAUR R/B 2.2 02:01:45 10° SSE 02:04:21 22° ESE 02:07:08 10° ENE
USA 234 3.2 01:58:15 10° NE 02:04:48 73° SE 02:11:18 10° SW
Spot 2 Rocket 4.5 02:02:19 13° SE 02:06:15 33° ENE 02:10:45 10° N
Cosmos 1441 Rocket 3.3 02:04:49 10° N 02:08:21 50° ENE 02:11:04 16° SSE
Cosmos 2278 4.0 02:04:58 10° NNW 02:10:36 57° ENE 02:15:10 16° SE
Cosmos 1933 Rocket 3.5 02:06:35 10° N 02:11:02 79° E 02:15:12 12° S
Meteor 1-13 Rocket 4.3 02:06:18 10° S 02:12:04 68° E 02:17:43 10° NNE
Resurs 01 Rocket 3.6 02:12:23 10° SSW 02:16:02 25° W 02:19:42 10° NW
Cosmos 1908 3.0 02:13:00 10° N 02:16:36 71° E 02:19:19 17° SSE
MOS 1 4.4 02:11:28 10° S 02:17:06 78° WSW 02:22:46 10° NNW
Terra 2.2 02:16:11 17° SE 02:19:38 48° ENE 02:24:10 10° N
Cosmos 2219 Rocket 4.2 02:20:26 10° N 02:23:55 16° NE 02:27:24 10° E
Cosmos 2237 4.3 02:20:21 10° NNW 02:26:05 67° ENE 02:30:11 19° SE
Cosmos 1470 3.2 02:22:31 10° NNW 02:26:09 54° W 02:29:33 11° S
ARGOS Delta rocket 3.7 02:23:05 13° S 02:27:09 78° W 02:31:34 10° NNW
Ariane Rocket 3.3 02:27:25 19° SE 02:30:51 52° ENE 02:35:48 10° N
Cosmos 468 Rocket 4.2 02:25:41 10° NNW 02:30:52 69° WSW 02:35:02 16° S
SL-27 R/B 2.8 02:38:03 30° E 02:38:03 30° E 02:40:22 10° NE
SL-14 R/B 3.5 02:37:33 26° SSE 02:39:17 46° E 02:42:56 10° NNE
Cosmos 1707 Rocket 4.1 02:38:10 24° SSE 02:40:21 42° E 02:44:33 10° NNE
Cosmos 2315 Rocket 4.3 02:34:24 10° N 02:40:39 54° ENE 02:44:42 22° SSE
SJ 16-02 2.4 02:40:04 24° ESE 02:41:00 26° E 02:44:36 10° NE
Cosmos 1850 Rocket 3.9 02:38:39 10° S 02:43:50 67° ESE 02:49:00 10° NNE
ATLAS 2AS CENTAUR R/B 3.4 02:38:54 10° NNW 02:45:20 42° NE 02:50:04 17° ESE
Landsat 4 3.6 02:44:04 33° SE 02:45:23 59° ENE 02:48:46 10° N
Meteor 1-4 Rocket 4.0 02:49:24 17° ENE 02:49:24 17° ENE 02:50:53 10° NE
Cosmos 2360 Rocket 2.9 02:43:41 10° NNW 02:49:06 43° ENE 02:52:15 23° ESE
Cosmos 1346 Rocket 3.4 02:46:27 10° N 02:50:06 39° ENE 02:51:15 30° ESE
Cosmos 540 Rocket 4.5 02:45:25 10° NW 02:50:13 40° WSW 02:54:15 14° SSW
Meteor 1-23 Rocket 4.2 02:47:06 12° S 02:52:18 88° E 02:58:03 10° N
RESURS DK-1 2.4 02:49:56 10° NNW 02:54:00 65° ENE 02:55:35 34° SE
SPOT 3 Rocket 3.5 02:51:36 25° SSE 02:54:38 79° ENE 02:59:49 10° N
Meteor 1-15 Rocket 4.3 02:51:48 10° NNW 02:57:23 78° W 03:01:07 22° S
SL-16 R/B 2.3 02:54:20 10° NNW 03:00:00 76° WSW 03:03:14 27° SSE
Cosmos 968 Rocket 3.4 02:57:17 21° S 03:00:39 64° ESE 03:05:47 10° NNE
Cosmos 2333 Rocket 2.7 02:56:36 10° NNW 03:02:13 51° ENE 03:05:07 27° SE
MOS 1 Rocket 3.6 02:59:26 24° S 03:02:47 81° WSW 03:08:08 10° NNW
Cosmos 1741 Rocket 4.0 02:58:34 10° SSW 03:03:48 86° WNW 03:09:08 10° NNE
Cosmos 1733 Rocket 3.2 02:59:51 10° N 03:04:13 61° E 03:05:48 37° SE
SeaSat 1 2.7 03:02:21 26° S 03:05:01 59° WSW 03:09:53 10° NNW
Cosmos 1758 3.2 03:05:04 10° N 03:09:00 87° W 03:10:17 41° S
Cosmos 1455 3.9 03:07:54 10° NNE 03:10:20 17° ENE 03:10:21 17° ENE
Atlas Centaur 2 3.6 03:03:57 10° WSW 03:11:16 36° S 03:14:19 28° SSE
USA 245 4.5 03:10:21 22° SW 03:11:58 33° W 03:15:41 10° NNW
Okean 1-7 3.7 03:11:24 34° ESE 03:12:03 36° E 03:16:01 10° NNE
Cosmos 1833 4.1 03:08:31 18° SSW 03:12:45 74° ESE 03:18:22 10° NNE
Cosmos 2228 Rocket 3.6 03:18:36 22° SSW 03:21:27 59° W 03:25:59 10° N
Cosmos 1241 Rocket 4.3 03:18:42 17° SSW 03:23:33 71° ESE 03:29:45 10° NE
Tiangong 0.3 03:21:53 10° WSW 03:22:45 14° WSW 03:22:45 14° WSW
Spot 1 4.4 03:21:15 10° N 03:25:49 76° WNW 03:28:28 26° SSW
Meteor 1-16 Rocket 4.4 03:20:01 10° N 03:25:56 65° E 03:28:18 37° SSE
Cosmos 1356 Rocket 4.2 03:25:56 22° SW 03:28:21 48° WNW 03:32:26 10° N
Cosmos 2333 4.3 03:26:17 10° NNW 03:32:03 68° ENE 03:34:15 39° SE
MetOp-A 4.0 03:30:40 40° SSE 03:32:36 89° W 03:37:53 10° NNW
Okean 2 3.2 03:36:15 64° SE 03:36:34 67° E 03:40:33 10° NNE
Meteor 2-20 Rocket 4.4 03:32:31 10° N 03:38:47 75° E 03:41:04 40° SSE
ATLAS CENTAUR R/B 3.2 03:38:55 10° WSW 03:41:52 25° NW 03:44:54 10° N
Cosmos 1300 3.9 03:39:22 10° NNW 03:42:31 30° W 03:43:15 28° WSW
Cosmos 2322 Rocket 2.6 03:37:21 10° NNW 03:42:52 54° WSW 03:44:58 35° SSW
Cosmos 2297 Rocket 3.9 03:47:54 17° E 03:47:54 17° E 03:50:51 10° ENE
Aureole 3 4.2 03:48:02 34° SW 03:49:16 46° WNW 03:53:41 10° N
Cosmos 1315 Rocket 2.7 03:49:43 67° SW 03:50:09 78° W 03:54:09 10° N
Cosmos 1953 2.1 03:50:54 10° N 03:54:38 77° ENE 03:54:38 77° ENE
Cosmos 1703 Rocket 3.4 03:55:52 68° SE 03:56:17 75° E 04:00:45 10° NNE
Terra 4.0 03:54:54 12° SW 03:57:28 17° W 04:00:34 10° NW
COSMOS 2428 3.4 04:01:59 10° NNW 04:07:26 45° ENE 04:09:13 35° ESE
Cosmos 2219 Rocket 2.1 04:02:54 10° NNW 04:08:36 85° WSW 04:09:56 55° SSE
CZ-2C R/B 3.6 04:05:02 10° N 04:09:27 80° WNW 04:10:01 66° SW
Cosmos 2242 Rocket 4.4 04:10:52 38° E 04:10:52 38° E 04:14:51 10° NNE
Cosmos 371 Rocket 4.3 04:12:01 32° E 04:12:01 32° E 04:15:45 10° NE
BlueWalker 3 2.5 04:15:31 49° NNE 04:15:31 49° NNE 04:18:23 10° NE
SJ 16-02 3.2 04:16:45 16° WSW 04:19:15 26° WNW 04:22:54 10° N
H-2A R/B 2.7 04:22:53 60° ENE 04:22:53 60° ENE 04:27:07 10° N
Cosmos 1709 Rocket 4.2 04:23:45 49° SE 04:25:11 61° E 04:31:27 10° NNE
COSMOS 2455 2.8 04:24:43 56° SSE 04:25:32 61° ESE 04:31:29 10° NE
CZ-4C R/B 2.2 04:28:06 45° E 04:28:06 45° E 04:32:19 10° NE
DNEPR-1 R/B 4.1 04:24:52 10° NW 04:31:08 64° WSW 04:31:50 58° SSW
ARIANE 5 R/B 2.8 04:31:12 58° W 04:31:12 58° W 04:35:27 10° NNW
Spot 4 3.8 04:31:54 64° ESE 04:32:15 67° ENE 04:37:02 10° N
Cosmos 2360 Rocket 3.5 04:28:11 10° NW 04:32:48 26° WSW 04:34:00 24° WSW
ATLAS 2AS CENTAUR R/B 3.2 04:29:56 10° NW 04:36:10 41° WSW 04:37:29 37° SW
Cosmos 1703 4.3 04:40:36 37° NE 04:40:36 37° NE 04:43:05 10° NNE
Cosmos 1570 Rocket 3.9 04:35:10 10° NNW 04:40:31 75° WSW 04:41:05 67° SSW
Cosmos 1455 4.0 04:41:52 10° NW 04:44:05 22° WNW 04:44:05 22° WNW
Cosmos 2333 Rocket 3.7 04:41:41 10° NW 04:46:06 23° WSW 04:47:07 22° WSW
SL-24 R/B - RUBIN 2 4.5 04:39:47 10° NW 04:46:10 58° WSW 04:47:01 53° SSW
USA 281 3.4 04:45:41 48° SSW 04:47:16 60° WSW 04:53:46 10° NNW
PSLV R/B 4.5 04:46:54 10° NNE 04:50:04 37° ENE 04:50:04 37° ENE
CZ-2C R/B 3.5 04:50:23 51° SW 04:51:32 67° W 05:07:49 10° N
Cosmos 2098 Rocket 4.3 04:45:52 10° N 04:52:22 57° ENE 04:53:52 46° SE
Cosmos 158 Rocket 3.8 04:47:36 10° NNW 04:52:55 83° WSW 04:53:14 77° SSW
GP-B 4.4 04:49:02 10° NNW 04:52:56 31° W 04:53:24 30° W
Cosmos 1782 Rocket 4.3 04:54:20 10° NNW 04:58:10 44° W 04:58:10 44° W
Cosmos 304 Rocket 3.6 05:01:27 85° NE 05:01:27 85° NE 05:06:06 10° NNE
Cosmos 2237 Rocket 2.6 05:02:29 10° NNW 05:08:03 54° ENE 05:09:20 45° ESE
SL-4 R/B 3.4 05:05:07 10° NW 05:08:56 36° NNE 05:10:26 27° ENE
Meteor 1-24 Rocket 3.6 05:08:46 67° SSW 05:09:37 87° W 05:15:20 10° N
Cosmos 2322 4.1 05:04:49 10° NW 05:10:12 46° WSW 05:10:29 45° WSW
Cosmos 836 Rocket 4.5 05:05:29 10° NNW 05:10:39 65° WSW 05:10:45 65° WSW
Cosmos 2227 Rocket 2.7 05:10:41 44° ESE 05:10:41 44° ESE 05:16:03 10° NE
Cosmos 773 Rocket 3.9 05:05:56 10° NNW 05:11:06 76° ENE 05:11:26 72° ESE
Cosmos 2208 Rocket 4.4 05:09:09 10° NNW 05:14:06 48° WSW 05:14:06 48° WSW
H-2A R/B 2.7 05:11:04 10° NNE 05:14:25 44° ENE 05:14:25 44° ENE
Cosmos 2084 Rocket 4.1 05:18:12 48° NE 05:18:12 48° NE 05:21:19 10° NE
Cosmos 1503 Rocket 4.0 05:20:32 64° WSW 05:21:09 72° WNW 05:26:28 10° NNE
Cosmos 1980 3.7 05:15:30 10° NNW 05:21:12 74° ENE 05:22:05 61° SE
Cosmos 2151 Rocket 3.9 05:17:05 10° N 05:21:05 58° NE 05:21:05 58° NE
Cosmos 1825 3.8 05:23:12 28° NE 05:23:12 28° NE 05:25:04 10° NNE
Cosmos 1777 Rocket 3.9 05:21:43 77° SW 05:22:05 84° WNW 05:27:24 10° NNE
ALOS 2 3.2 05:23:09 47° WNW 05:23:09 47° WNW 05:26:54 10° NNW
SL-23 DEB 4.5 05:23:48 72° SW 05:24:23 88° SSE 05:32:11 10° NE
GEOS 3 Rocket 3.6 05:20:15 10° NE 05:25:12 63° ESE 05:25:12 63° ESE
Okean 2 Rocket 3.3 05:23:45 10° N 05:27:55 63° ENE 05:27:55 63° ENE
BREEZE-M DEB (TANK) 4.5 05:22:20 10° WNW 05:30:12 35° N 05:33:10 10° ENE
Cosmos 2181 Rocket 3.8 05:24:04 10° N 05:30:17 89° E 05:31:22 63° S
Cosmos 2297 Rocket 2.4 05:29:40 53° WSW 05:30:45 65° WNW 05:36:23 10° NNE
Cosmos 1674 Rocket 3.7 05:32:54 69° NNE 05:32:54 69° NNE 05:36:46 10° N
Cosmos 2219 4.0 05:33:16 36° ESE 05:33:21 36° ESE 05:38:27 10° NE
Cosmos 1378 Rocket 3.7 05:34:08 67° NNW 05:34:08 67° NNW 05:38:03 10° N
CENTAUR R/B 2.4 05:33:38 55° SE 05:33:51 55° ESE 05:40:15 10° NE
CZ-3 Stage 3 4.3 05:16:54 10° W 05:35:35 32° SW 05:35:53 32° SW
Cosmos 2074 Rocket 3.9 05:38:32 61° SSE 05:39:39 79° E 05:45:52 10° N
Cosmos 1025 Rocket 4.0 05:40:57 39° ENE 05:40:57 39° ENE 05:44:35 10° NNE
Cosmos 2221 Rocket 3.7 05:43:28 73° NNW 05:43:28 73° NNW 05:47:35 10° N
Meteor 2-5 Rocket 4.5 05:41:48 39° WSW 05:43:08 46° WNW 05:48:46 10° N
COSMOS 2428 4.0 05:46:47 10° NW 05:51:11 26° W 05:51:11 26° W
Cosmos 2219 Rocket 4.5 05:50:37 10° W 05:51:35 10° W 05:51:37 10° W
Sich 1 Rocket 3.9 05:48:07 10° NNW 05:51:57 60° NW 05:51:57 60° NW
Cosmos 405 Rocket 4.3 05:52:58 10° NNW 05:55:13 28° NW 05:55:13 28° NW
Cosmos 1898 Rocket 4.3 06:01:58 37° ESE 06:02:15 37° ESE 06:06:59 10° NE
Cosmos 2263 Rocket 2.6 06:03:48 45° ESE 06:04:18 46° ESE 06:09:36 10° NE
Resurs 1-4 Rocket 4.3 06:02:06 10° ENE 06:04:33 13° E 06:06:19 11° ESE
SL-12 R/B(2) 4.2 06:09:01 41° SW 06:12:21 86° NW 06:21:54 10° NE
CZ-4C R/B 3.9 06:13:08 14° W 06:16:06 23° NW 06:20:34 10° NNE
Nadezhda 3 Rocket 3.9 06:12:31 10° N 06:18:49 83° W 06:20:15 56° S
NOSS 3-2 (A) 2.9 06:18:58 69° S 06:19:31 77° ESE 06:25:23 10° NE
Cosmos 2184 Rocket 4.5 06:22:41 41° WSW 06:24:16 49° WNW 06:30:27 10° N
NOSS 3-2 (C) 3.9 06:25:20 35° SE 06:25:45 35° ESE 06:30:57 10° NE
Okean 1 Rocket 3.9 06:24:23 10° NNW 06:27:57 40° WNW 06:27:57 40° WNW
Nimbus 7 Rocket 4.4 06:24:43 10° NNE 06:30:48 78° WNW 06:32:23 52° SSW
In-Cosmos 22 Rocket 4.2 06:35:13 54° S 06:36:34 80° E 06:42:25 10° NNE
Cosmos 292 Rocket 3.6 06:38:10 69° WSW 06:38:35 75° WNW 06:43:24 10° NNE
SL-16 R/B 2.1 06:39:17 10° NNW 06:45:00 83° WSW 06:46:35 49° SSE
Cosmos 2327 Rocket 4.5 06:44:23 48° SW 06:45:58 67° W 06:52:03 10° N
SL-4 R/B 4.0 06:43:46 10° WNW 06:45:06 19° WNW 06:45:06 19° WNW
BREEZE-M DEB (TANK) 3.9 06:49:11 18° E 06:49:11 18° E 06:50:34 10° E
Cosmos 1975 Rocket 3.0 06:49:56 65° W 06:50:04 66° W 06:54:27 10° N
H-2A R/B 4.2 06:48:11 10° NNW 06:50:25 14° WNW 06:51:12 14° WNW
Cosmos 2237 Rocket 3.7 06:47:32 10° NW 06:51:07 20° W 06:51:07 20° W
Cosmos 2082 3.7 06:51:06 51° SW 06:52:32 75° WNW 06:58:10 10° NNE
Cosmos 2227 Rocket 3.7 06:52:28 21° W 06:54:53 28° NW 06:59:43 10° N
IDEFIX/ARIANE 42P 3.0 06:50:44 10° NNE 06:55:51 53° E 06:57:28 38° SSE
SL-8 Rocket 3.9 06:57:09 45° S 06:59:15 88° W 07:05:28 10° N
H-2A R/B 4.1 06:55:38 10° NNE 06:59:26 42° E 06:59:56 40° ESE
CZ-2C R/B 3.6 06:55:47 17° SE 06:59:27 42° ENE 07:04:29 10° N
Cosmos 1943 4.3 06:54:20 10° N 06:59:39 41° ENE 07:04:55 10° SE
CZ-2C R/B 4.2 06:56:44 10° NNE 07:01:37 35° E 07:03:52 24° SE
CZ-2D R/B 2.8 07:00:25 10° NNE 07:05:31 45° E 07:07:38 30° SSE
Cosmos 1455 Rocket 3.7 07:01:34 10° NNW 07:05:42 40° W 07:05:42 40° W
COBE Rocket 3.9 07:01:13 10° N 07:06:24 88° WNW 07:07:50 49° SSW
Meteor 1-11 4.3 07:04:41 46° SSW 07:06:26 72° W 07:12:16 10° N
Cosmos 858 Rocket 4.4 07:12:16 48° SSW 07:13:45 85° WNW 07:19:01 10° NNE
Cosmos 2219 4.4 07:15:09 24° W 07:17:29 32° WNW 07:22:31 10° N
Cosmos 1959 Rocket 4.5 07:16:53 38° SSW 07:19:28 78° W 07:25:51 10° N
Cosmos 1536 Rocket 3.8 07:18:23 43° SSE 07:19:40 65° E 07:24:04 10° NNE
Cosmos 1606 2.6 07:16:31 10° NNW 07:19:53 64° WNW 07:19:53 64° WNW
Cosmos 1867 4.1 07:20:35 34° SSE 07:22:31 49° ESE 07:27:46 10° NE
NPP 3.6 07:17:14 10° NNE 07:22:39 89° ESE 07:24:46 39° SSW
CENTAUR R/B 3.9 07:20:44 15° W 07:24:54 30° NW 07:31:02 10° NNE
Cosmos 2227 4.2 07:24:37 38° SSW 07:26:55 80° ESE 07:32:42 10° NNE
Cosmos 1900 4.3 07:25:54 43° SW 07:27:36 86° WNW 07:32:44 10° NNE
Iridium 921 4.4 07:29:09 65° W 07:29:11 65° W 07:32:36 10° N
Cosmos 2341 Rocket 4.4 07:27:49 32° SW 07:30:10 47° WNW 07:36:09 10° N
ADEOS II 2.6 07:26:21 10° NNE 07:31:29 52° E 07:34:19 25° SSE
USA 238 DEB 3.7 07:28:49 33° S 07:31:37 64° ESE 07:38:07 10° NE
USA 238 3.7 07:28:52 33° S 07:31:41 63° ESE 07:38:10 10° NE
Helios 1A Rocket 4.3 07:33:25 22° W 07:33:25 22° W 07:35:48 10° NW
Cosmos 923 Rocket 4.2 07:31:03 10° NNW 07:36:08 51° WSW 07:37:48 37° SSW
Cosmos 1844 4.4 07:33:31 24° SSE 07:36:37 47° ESE 07:42:08 10° NE
Cosmos 1461 3.8 07:36:27 29° W 07:37:32 35° NW 07:41:08 10° NNE
Cosmos 1937 Rocket 4.3 07:38:33 28° WSW 07:40:35 39° WNW 07:45:30 10° N
MOZ.5/SAFIR/RUBIN 5/SL-8 4.3 07:39:56 35° WSW 07:40:41 38° W 07:45:01 10° NNW
Meteor 2-13 Rocket 4.4 07:35:44 10° N 07:41:51 84° E 07:46:27 19° S
Resurs 1-4 Rocket 2.1 07:39:35 10° N 07:44:52 75° WNW 07:47:22 32° SSW
Cosmos 2263 Rocket 3.6 07:45:28 17° W 07:48:23 26° NW 07:53:03 10° N
AQUA 3.9 07:52:27 10° NNE 07:57:11 72° ESE 08:00:01 24° S
Cosmos 1821 Rocket 4.1 08:00:02 26° SSW 08:03:26 56° W 08:09:28 10° N
Meteor 1-28 Rocket 3.2 08:01:25 18° SSE 08:03:53 70° ENE 08:07:25 10° N
SL-24 DEB 4.2 07:59:29 10° N 08:04:03 81° E 08:07:08 21° S
Meteor 1-27 4.4 07:59:58 10° NNW 08:05:42 61° W 08:09:44 20° S
Cosmos 1844 Rocket 2.6 08:04:20 25° SSW 08:07:41 84° WNW 08:13:17 10° NNE
Delta 2 Rocket 3.8 08:07:47 32° SW 08:08:39 36° S 08:12:33 10° ESE
Cosmos 1892 Rocket 3.9 08:05:35 18° S 08:08:45 61° E 08:13:07 10° NNE
ALOS 2.4 08:05:28 10° NNE 08:10:05 70° ESE 08:13:24 19° S
Cosmos 1437 Rocket 3.4 08:12:41 28° WSW 08:14:03 38° WNW 08:17:38 10° N
NOSS 3-2 (C) 4.3 08:12:44 16° WSW 08:16:30 35° NW 08:22:07 10° NNE
Cosmos 1680 Rocket 4.4 08:13:44 10° NW 08:18:09 29° W 08:20:14 22° SW
Alouette 2 Rocket 3.9 08:14:22 15° S 08:18:29 67° E 08:22:17 10° NNE
USA 267 3.3 08:12:27 10° NE 08:19:02 82° SE 08:24:01 19° SW
Cosmos 2228 4.4 08:17:26 10° NW 08:20:47 22° W 08:21:58 20° WSW
Cosmos 1818 4.2 08:16:20 10° NW 08:21:11 33° WSW 08:24:48 16° SSW
SL-16 R/B 4.2 08:27:42 10° W 08:28:07 10° W 08:28:24 10° W
SAR-Lupe-1 4.1 08:24:53 10° NNE 08:28:28 79° ESE 08:31:07 17° S
Cosmos 1603 3.8 08:28:14 10° NNW 08:33:50 55° WSW 08:39:22 10° S
IDEFIX/ARIANE 42P 4.2 08:31:12 10° NNW 08:34:56 20° WNW 08:38:13 12° WSW
SL-16 R/B 2.6 08:29:41 10° S 08:35:52 64° WSW 08:42:05 10° NNW
CZ-2C R/B 3.8 08:37:16 17° SW 08:39:51 24° W 08:44:07 10° NW
CZ-2C R/B 4.2 08:36:42 10° N 08:41:17 29° WNW 08:44:53 14° WSW
Cosmos 2123 Rocket 4.0 08:35:21 10° NNW 08:41:31 72° W 08:47:40 10° S
Cosmos 1934 Rocket 4.1 08:36:19 12° SSW 08:42:08 67° W 08:48:30 10° N
SEDSat Delta rocket 4.2 08:41:06 17° SSW 08:42:42 21° S 08:45:48 10° SE
Cosmos 1943 4.1 08:38:46 10° NW 08:43:26 27° WSW 08:47:42 12° SSW
CZ-2D R/B 3.5 08:41:03 10° NNW 08:45:12 24° WNW 08:48:55 12° WSW
Envisat 3.0 08:47:32 10° NNE 08:52:38 88° ESE 08:57:42 10° SSW
USA 234 4.4 08:46:41 10° ESE 08:52:54 48° NNE 08:59:07 10° NW
Cosmos 921 Rocket 3.7 08:50:13 10° NW 08:53:57 31° W 08:57:38 10° SSW
Cosmos 1048 Rocket 4.2 08:49:58 10° NNW 08:55:02 52° WSW 09:00:08 10° S
ASTEX 1 4.2 08:52:22 12° SSW 08:56:11 31° W 09:00:31 10° NNW
Cosmos 1125 Rocket 3.8 08:57:57 11° SW 09:02:49 53° WNW 09:08:01 10° N
CZ-2C R/B 2.5 08:58:54 10° NNE 09:03:27 72° ESE 09:08:02 10° S
Cosmos 1238 Rocket 2.3 09:05:19 10° NNW 09:08:37 58° W 09:11:34 10° S
Lacrosse 5 4.3 09:07:21 10° SE 09:09:34 13° ESE 09:11:47 10° E
Cosmos-2242 3.5 09:05:24 10° N 09:09:42 63° E 09:13:55 10° SSE
ADEOS II 3.7 09:06:53 10° NNW 09:10:41 21° WNW 09:14:28 10° WSW
Cosmos 1812 3.4 09:08:19 10° NNW 09:11:30 30° W 09:14:39 10° SSW
Cosmos 2150 Rocket 4.1 09:10:09 10° SSW 09:15:21 76° WNW 09:20:40 10° NNE
Cosmos 2058 3.7 09:12:38 10° SW 09:16:19 34° WNW 09:20:03 10° N
Cosmos 1782 3.0 09:12:31 10° N 09:16:22 71° E 09:20:11 10° SSE
Cosmos 1833 Rocket 4.0 09:15:39 10° NNW 09:21:06 47° ENE 09:26:31 10° SE
YAOGAN 6 2.2 09:19:42 10° N 09:22:53 69° WNW 09:26:01 10° SSW
Resurs 1-4 Rocket 4.3 09:23:19 10° NW 09:23:43 10° WNW 09:24:06 10° WNW
PAYLOAD A 4.1 09:20:11 10° NNE 09:25:25 82° WNW 09:30:47 10° SSW
Meteor 2-3 Rocket 3.9 09:22:24 10° S 09:28:11 89° W 09:34:01 10° N
